This is the latest recevied weather packets stored in our database for station/object PE1BMM-13. If no packets are shown the sender has not sent any weather packets the latest 10 day(s).
| Time | Temp. | Humidity | Pressure | Rain* | Wind** | Luminosity | Snow |
|---|---|---|---|---|---|---|---|
| 1777840224 | 14.44° C | 91% | 1011.4 hPa | 0 mm | - | - | - |
| 1777839920 | 14.44° C | 91% | 1011.4 hPa | 0 mm | - | - | - |
| 1777839320 | 14.44° C | 90% | 1011.3 hPa | 0 mm | - | - | - |
| 1777838832 | 15° C | 90% | 1011.2 hPa | 0 mm | - | - | - |
| 1777835387 | 15° C | 89% | 1010.7 hPa | 0 mm | - | - | - |
| 1777832680 | 15.56° C | 88% | 1010.2 hPa | 0 mm | - | - | - |
| 1777831163 | 15.56° C | 88% | 1010 hPa | 0 mm | - | - | - |
| 1777830246 | 15.56° C | 88% | 1009.9 hPa | 0 mm | - | - | - |
| 1777828425 | 15.56° C | 87% | 1010 hPa | 0 mm | - | - | - |
| 1777827525 | 16.11° C | 87% | 1010 hPa | 0 mm | - | - | - |
| 1777827224 | 16.11° C | 87% | 1010.1 hPa | 0 mm | - | - | - |
| 1777826321 | 16.11° C | 87% | 1010 hPa | 0 mm | - | - | - |
| 1777825720 | 16.11° C | 86% | 1009.9 hPa | 0 mm | - | - | - |
| 1777825119 | 16.67° C | 86% | 1009.9 hPa | 0 mm | - | - | - |
| 1777823919 | 16.67° C | 86% | 1009.9 hPa | 0 mm | - | - | - |
| 1777820276 | 16.11° C | 90% | 1009.8 hPa | 0 mm | - | - | - |
| 1777819700 | 15.56° C | 89% | 1009.9 hPa | 0 mm | - | - | - |
| 1777819376 | 15.56° C | 90% | 1009.8 hPa | 0 mm | - | - | - |
| 1777817283 | 15.56° C | 90% | 1010 hPa | 0 mm | - | - | - |
| 1777816694 | 15.56° C | 91% | 1010.2 hPa | 0 mm | - | - | - |
| 1777814874 | 15.56° C | 93% | 1010.5 hPa | 0 mm | - | - | - |
| 1777813377 | 15° C | 96% | 1010.7 hPa | 0.25 mm | - | - | - |
| 1777811866 | 15° C | 96% | 1010.7 hPa | 0.51 mm | - | - | - |
| 1777811264 | 15° C | 96% | 1010.7 hPa | 0.51 mm | - | - | - |
| 1777810965 | 15° C | 97% | 1010.7 hPa | 0.76 mm | - | - | - |
* Rain latest hour (hover to see other rain measurements)
** Current wind speed in m/s (hover to see current wind gust speed)